Frankfort, MI

5:31 AM EDT on May 26, 2018 (GMT -0400)
Frankfort

Weather History for KFKS - January, 2013

Change the Weather History Date:

Monday, January 7, 2013

  Actual Average (WUND) Record (WUND)
Temperature  
Mean Temperature 30 °F -  
Max Temperature 39 °F - - (-1)
Min Temperature 23 °F - - (-1)
Degree Days  
Heating Degree Days 34    
Moisture  
Dew Point 26 °F    
Average Humidity 71    
Maximum Humidity 81    
Minimum Humidity 63    
Precipitation  
Precipitation 0.00 in - - ()
Sea Level Pressure  
Sea Level Pressure 30.07 in    
Wind  
Wind Speed 11 mph (SSW)    
Max Wind Speed 24 mph    
Max Gust Speed 37 mph    
Visibility 10 miles    
Events      
Averages and records for this station are not official NWS values.
T = Trace of Precipitation, MM = Missing Value Source: NWS Daily Summary

Daily Weather History Graph

Daily Weather History Graph

Search for Another Location

Airport or City:

Astronomy

Jan. 07, 2013 Rise Set
Actual Time 8:21 AM EST 5:21 PM EST
Civil Twilight 7:48 AM EST 5:54 PM EST
Nautical Twilight 7:11 AM EST 6:31 PM EST
Astronomical Twilight 6:36 AM EST 7:06 PM EST
Moon 3:41 AM EST (1/7) 1:34 PM EST (1/7)
Length of Visible Light 10h 06m
Length of Day
9h 00m
Waning Crescent, 23% of the Moon is Illuminated
Jan 7
Waning Crescent
Jan 11
New
Jan 18
First Quarter
Jan 26
Full
Feb 3
Last Quarter

Hourly Weather History & Observations

Time (EST) Temp. Windchill Dew Point Humidity Pressure Visibility Wind Dir Wind Speed Gust Speed Precip Events Conditions
12:32 AM 23.9 °F - 18.9 °F 81% 30.23 in 10.0 mi Calm Calm - N/A   Overcast
12:52 AM 25.0 °F - 19.4 °F 79% 30.23 in 10.0 mi Calm Calm - N/A   Overcast
1:13 AM 26.8 °F 22.8 °F 19.8 °F 75% 30.23 in 10.0 mi SE 3.5 mph - N/A   Overcast
1:33 AM 27.1 °F 21.8 °F 20.3 °F 75% 30.22 in 10.0 mi SE 4.6 mph - N/A   Overcast
1:53 AM 27.5 °F 22.2 °F 20.7 °F 75% 30.22 in 10.0 mi SE 4.6 mph - N/A   Overcast
2:13 AM 28.0 °F 22.8 °F 21.0 °F 75% 30.21 in 10.0 mi SE 4.6 mph - N/A   Overcast
2:33 AM 28.4 °F 22.2 °F 21.2 °F 74% 30.21 in 10.0 mi SE 5.8 mph - N/A   Overcast
2:53 AM 28.4 °F 24.6 °F 21.7 °F 76% 30.21 in 10.0 mi SSE 3.5 mph - N/A   Overcast
3:13 AM 32.0 °F 24.2 °F 25.2 °F 76% 30.21 in 10.0 mi SW 9.2 mph - N/A   Overcast
3:33 AM 32.0 °F 24.8 °F 24.6 °F 74% 30.21 in 10.0 mi SW 8.1 mph 17.3 mph N/A   Overcast
3:53 AM 32.0 °F 25.6 °F 23.9 °F 72% 30.20 in 10.0 mi SSW 6.9 mph 16.1 mph N/A   Overcast
4:14 AM 32.0 °F 24.2 °F 23.7 °F 71% 30.20 in 10.0 mi SSW 9.2 mph 17.3 mph N/A   Mostly Cloudy
4:34 AM 32.0 °F 23.0 °F 23.9 °F 72% 30.20 in 10.0 mi SW 11.5 mph 18.4 mph N/A   Mostly Cloudy
4:54 AM 32.0 °F 23.0 °F 24.3 °F 73% 30.19 in 10.0 mi SW 11.5 mph 18.4 mph N/A   Overcast
5:14 AM 32.0 °F 24.2 °F 24.3 °F 73% 30.18 in 10.0 mi SSW 9.2 mph 18.4 mph N/A   Overcast
5:34 AM 32.0 °F 22.1 °F 24.6 °F 74% 30.18 in 10.0 mi SW 13.8 mph 23.0 mph N/A   Mostly Cloudy
5:54 AM 32.4 °F 22.1 °F 25.5 °F 76% 30.16 in 10.0 mi SSW 15.0 mph 21.9 mph N/A   Mostly Cloudy
6:14 AM 32.5 °F 22.3 °F 25.3 °F 75% 30.16 in 10.0 mi SW 15.0 mph 23.0 mph N/A   Mostly Cloudy
6:35 AM 32.9 °F 24.1 °F 26.1 °F 76% 30.16 in 10.0 mi SSW 11.5 mph 23.0 mph N/A   Mostly Cloudy
7:35 AM 32.9 °F 22.0 °F 25.7 °F 75% 30.15 in 10.0 mi SSW 17.3 mph 29.9 mph N/A   Mostly Cloudy
7:55 AM 32.7 °F 21.1 °F 24.8 °F 73% 30.14 in 10.0 mi South 19.6 mph 27.6 mph N/A   Scattered Clouds
8:15 AM 32.5 °F 21.9 °F 25.0 °F 74% 30.13 in 10.0 mi South 16.1 mph 29.9 mph N/A   Clear
8:35 AM 32.0 °F 21.6 °F 25.2 °F 76% 30.12 in 10.0 mi South 15.0 mph 27.6 mph N/A   Clear
8:55 AM 32.0 °F 21.2 °F 24.4 °F 74% 30.11 in 10.0 mi South 16.1 mph 24.2 mph N/A   Clear
9:16 AM 32.0 °F 21.2 °F 23.5 °F 71% 30.12 in 10.0 mi South 16.1 mph 25.3 mph N/A   Clear
9:36 AM 32.0 °F 21.2 °F 23.9 °F 72% 30.13 in 10.0 mi South 16.1 mph 21.9 mph N/A   Scattered Clouds
9:56 AM 33.8 °F 23.2 °F 25.9 °F 73% 30.12 in 10.0 mi SSW 17.3 mph 24.2 mph N/A   Scattered Clouds
10:16 AM 35.1 °F 25.2 °F 25.3 °F 68% 30.12 in 10.0 mi SSW 16.1 mph 31.1 mph N/A   Clear
10:36 AM 35.6 °F 24.5 °F 26.1 °F 68% 30.11 in 10.0 mi SSW 20.7 mph 33.4 mph N/A   Clear
10:51 AM 35.8 °F 24.8 °F 26.6 °F 69% 30.11 in 10.0 mi SSW 20.7 mph 31.1 mph N/A   Clear
11:11 AM 36.0 °F 24.2 °F 26.6 °F 69% 30.10 in 10.0 mi SSW 24.2 mph 33.4 mph N/A   Clear
11:32 AM 36.3 °F 24.7 °F 26.6 °F 68% 30.09 in 10.0 mi SSW 24.2 mph 35.7 mph N/A   Clear
11:52 AM 36.5 °F 25.7 °F 27.0 °F 68% 30.07 in 10.0 mi SSW 20.7 mph 32.2 mph N/A   Clear
12:12 PM 36.5 °F 26.3 °F 27.3 °F 69% 30.05 in 10.0 mi SSW 18.4 mph 27.6 mph N/A   Clear
12:32 PM 37.0 °F 26.7 °F 27.5 °F 68% 30.04 in 10.0 mi SSW 19.6 mph 34.5 mph N/A   Clear
12:52 PM 37.0 °F 26.7 °F 27.5 °F 68% 30.02 in 10.0 mi South 19.6 mph 35.7 mph N/A   Clear
1:12 PM 37.4 °F 27.8 °F 27.3 °F 67% 30.01 in 10.0 mi SSW 17.3 mph 29.9 mph N/A   Clear
1:32 PM 37.4 °F 28.5 °F 27.5 °F 67% 30.00 in 10.0 mi SSW 15.0 mph 35.7 mph N/A   Clear
1:52 PM 37.8 °F 28.0 °F 28.0 °F 68% 29.99 in 10.0 mi SSW 18.4 mph 34.5 mph N/A   Clear
2:12 PM 37.8 °F 26.6 °F 28.2 °F 68% 29.99 in 10.0 mi SSW 24.2 mph 35.7 mph N/A   Clear
2:33 PM 37.6 °F 27.1 °F 28.0 °F 68% 29.98 in 10.0 mi SSW 20.7 mph 35.7 mph N/A   Clear
2:53 PM 37.8 °F 27.1 °F 28.4 °F 69% 29.97 in 10.0 mi SSW 21.9 mph 36.8 mph N/A   Clear
3:13 PM 37.0 °F 26.2 °F 28.9 °F 73% 29.97 in 10.0 mi SSW 21.9 mph 36.8 mph N/A   Clear
3:33 PM 37.4 °F 26.6 °F 29.1 °F 72% 29.97 in 10.0 mi SSW 21.9 mph 34.5 mph N/A   Clear
3:53 PM 37.4 °F 26.9 °F 29.1 °F 72% 29.96 in 10.0 mi SSW 20.7 mph 31.1 mph N/A   Clear
4:13 PM 37.6 °F 26.6 °F 29.3 °F 72% 29.96 in 10.0 mi SSW 23.0 mph 32.2 mph N/A   Clear
4:33 PM 37.6 °F 27.1 °F 28.6 °F 70% 29.97 in 10.0 mi SSW 20.7 mph 32.2 mph N/A   Clear
4:53 PM 37.6 °F 26.9 °F 29.3 °F 72% 29.95 in 10.0 mi SSW 21.9 mph 31.1 mph N/A   Clear
5:14 PM 37.6 °F 28.8 °F 29.1 °F 72% 29.97 in 10.0 mi SSW 15.0 mph 34.5 mph N/A   Clear
5:34 PM 37.8 °F 27.4 °F 29.1 °F 71% 29.97 in 10.0 mi SSW 20.7 mph 31.1 mph N/A   Scattered Clouds
5:54 PM 37.9 °F 28.5 °F 30.2 °F 74% 29.98 in 10.0 mi SW 17.3 mph 33.4 mph N/A   Scattered Clouds
6:14 PM 38.5 °F 27.8 °F 30.0 °F 72% 29.98 in 10.0 mi SW 23.0 mph 33.4 mph N/A   Scattered Clouds
6:34 PM 38.7 °F 30.1 °F 30.2 °F 72% 29.98 in 10.0 mi SW 15.0 mph 28.8 mph N/A   Mostly Cloudy
6:54 PM 38.7 °F 30.1 °F 30.7 °F 73% 29.98 in 10.0 mi SW 15.0 mph 27.6 mph N/A   Mostly Cloudy
7:14 PM 38.8 °F 29.7 °F 28.0 °F 65% 29.98 in 10.0 mi SW 17.3 mph 26.5 mph N/A   Mostly Cloudy
7:34 PM 38.7 °F 30.5 °F 27.3 °F 64% 29.98 in 10.0 mi SW 13.8 mph 31.1 mph N/A   Scattered Clouds
7:55 PM 38.7 °F 29.1 °F 27.1 °F 63% 29.98 in 10.0 mi SW 18.4 mph 29.9 mph N/A   Clear
8:15 PM 38.5 °F 29.6 °F 27.3 °F 64% 29.98 in 10.0 mi WSW 16.1 mph 32.2 mph N/A   Clear
8:35 PM 38.3 °F 28.7 °F 27.3 °F 65% 29.98 in 10.0 mi WSW 18.4 mph 27.6 mph N/A   Clear
8:55 PM 38.1 °F 29.5 °F 27.1 °F 65% 29.97 in 10.0 mi SW 15.0 mph 25.3 mph N/A   Clear
9:15 PM 37.9 °F 29.2 °F 27.5 °F 66% 29.98 in 10.0 mi WSW 15.0 mph 23.0 mph N/A   Clear
9:35 PM 37.8 °F 30.2 °F 28.0 °F 68% 29.98 in 10.0 mi WSW 11.5 mph 24.2 mph N/A   Clear
9:55 PM 37.8 °F 28.6 °F 27.5 °F 67% 29.98 in 10.0 mi SW 16.1 mph 23.0 mph N/A   Clear
10:35 PM 37.6 °F 29.1 °F 28.4 °F 69% 29.99 in 10.0 mi WSW 13.8 mph 20.7 mph N/A   Clear
10:56 PM 37.4 °F 31.4 °F 28.4 °F 70% 29.99 in 10.0 mi WSW 8.1 mph 20.7 mph N/A   Clear
11:16 PM 37.4 °F 29.8 °F 28.4 °F 70% 30.00 in 10.0 mi WSW 11.5 mph 23.0 mph N/A   Clear
11:56 PM 37.2 °F 29.6 °F 28.4 °F 70% 30.00 in 10.0 mi WSW 11.5 mph 21.9 mph N/A   Clear